Regional Weather Roundup
Issued by NWS

Home | Current Version | Previous Version | Text Only | Print | Product List | Glossary Off
Versions: 1 2 3 4 5 6 7 8 9 10 11 12 13 14 15 16 17 18 19 20 21 22 23 24 25 26 27 28 29 30 31 32 33 34 35 36 37 38 39 40 41 42 43 44 45 46 47 48 49 50

970
ASUS43 KDMX 202001
RWRIA

WEATHER ROUNDUP FOR IOWA
NATIONAL WEATHER SERVICE DES MOINES IA
200 PM CST FRI JAN 20 2017

NOTE: "FAIR" INDICATES FEW OR NO CLOUDS BELOW 12,000 FEET WITH NO
SIGNIFICANT WEATHER AND/OR OBSTRUCTIONS TO VISIBILITY.

* - THESE STATIONS ARE NOT NWS STATIONS...THUS NOT UNDER NWS
QUALITY CONTROL.  THEY ALSO DO NOT REPORT WEATHER SUCH
AS PRECIPITATION OR FOG.

IAZ001>003-012>014-020>022-031>034-043>046-202100-
   NORTHWEST IOWA

CITY           SKY/WX    TMP DP  RH WIND       PRES   REMARKS
CARROLL *      CLOUDY    41  41 100 SE8       29.50F
CHEROKEE *     CLOUDY    39  39 100 SE9       29.48F FOG     WCI  33
DENISON *      CLOUDY    41  41 100 SE9G15    29.46F FOG
LE MARS *      CLOUDY    43  41  93 SE9       29.46F FOG
ORANGE CITY *  CLOUDY    39  39 100 SE7       29.46S FOG     WCI  34
SHELDON *      PTSUNNY   39  39 100 SE13      29.45S FOG     WCI  32
SIOUX CITY     CLOUDY    42  41  96 S9        29.46F FOG
SPENCER        FOG       39  39 100 SE10      29.49F VSB 1/4 WCI  32
STORM LAKE *   FOG       39  37  93 SE12      29.48F VSB 1/4 WCI  32
$$

IAZ055>058-069>071-079>083-090>094-202100-
   SOUTHWEST IOWA

CITY           SKY/WX    TMP DP  RH WIND       PRES   REMARKS
ATLANTIC *     CLOUDY    41  41 100 SE5       29.49F
AUDUBON *      CLOUDY    39  39 100 SE9       29.51F FOG     WCI  33
CLARINDA *     CLOUDY    45  45 100 E7        29.49F
COUNCIL BLFS * CLOUDY    41  41 100 E9        29.46F
CRESTON *      FOG       41  41 100 SE8       29.51F VSB 1/2
HARLAN  *      CLOUDY    41  41 100 SE6       29.52F
LAMONI         CLOUDY    42  41  96 E5        29.50F
RED OAK *      CLOUDY    43  43 100 E7        29.48F
SHENANDOAH *   CLOUDY    45  43  93 E12       29.47F
$$

IAZ047>049-059>061-072>074-084-202100-
   CENTRAL IOWA

CITY           SKY/WX    TMP DP  RH WIND       PRES   REMARKS
AMES           CLOUDY    38  38 100 SE5       29.54F FOG     WCI  34
ANKENY *       CLOUDY    41  39  93 SE5       29.55F
BOONE *        MIX PCPN  37  37 100 SE7       29.52S VSB<1/4 WCI  32
CHARITON *     CLOUDY    41  41 100 SE5       29.53F
DES MOINES     CLOUDY    43  41  93 E5        29.54F
GRINNELL*      FOG       39  38  99 SE7       29.56R VSB 1/2 WCI  34
KNOXVILLE *    FOG       39  39 100 E5        29.52F VSB 1/4
MARSHALLTOWN   FOG       38  38 100 SE8       29.54F VSB 1/2 WCI  32
NEWTON *       FOG       39  39 100 SE7       29.54F VSB 3/4 WCI  34
PELLA *        FOG       39  39  99 SE6       29.56F VSB 3/4
PERRY *        CLOUDY    40  39  97 SE7       29.52F FOG
$$

IAZ004>006-015-016-023>025-035-036-202100-
   NORTH CENTRAL IOWA

CITY           SKY/WX    TMP DP  RH WIND       PRES   REMARKS
ALGONA *       CLOUDY    37  37 100 SE7       29.51F FOG     WCI  32
CLARION *      FOG       36  36 100 S5        29.52F VSB 1/4 WCI  32
ESTHERVILLE    FOG       35  35 100 S9        29.50S VSB 1/4 WCI  28
FORT DODGE *   CLOUDY    37  36  93 SE5       29.52F VSB 3/4 WCI  34
MASON CITY     FOG       34  34 100 S7        29.54F VSB 1/2 WCI  28
FOREST CITY *  FOG       34  34 100 S5        29.53S VSB 1/4 WCI  30
WEBSTER CITY * FOG       37  37 100 SE6       29.51F VSB<1/4 WCI  33
IOWA FALLS *   FOG       38  37  98 SE3       29.54F VSB 1/4
$$

IAZ007>011-017>019-026>030-037>042-050>054-066-202100-
   NORTHEAST IOWA

CITY           SKY/WX    TMP DP  RH WIND       PRES   REMARKS
CEDAR RAPIDS   CLOUDY    39  39 100 S7        29.55S FOG     WCI  34
CHARLES CITY * FOG       36  36 100 S7        29.55R VSB<1/4 WCI  30
CLINTON *      CLOUDY    41  40  96 S8        29.59R
DECORAH *      FOG       36  36 100 SE5       29.54F VSB<1/4 WCI  32
DUBUQUE        FOG       38  38 100 E5        29.57R VSB 1/4 WCI  34
MONTICELLO *   CLOUDY    39  39 100 SE6       29.56F FOG     WCI  35
OELWEIN *      FOG       36  36 100 SE6       29.56R VSB<1/4 WCI  31
WATERLOO       CLOUDY    39  38  96 SE5       29.53F FOG
$$

IAZ064-065-067-068-078-202100-
   EAST CENTRAL IOWA

CITY           SKY/WX    TMP DP  RH WIND       PRES   REMARKS
DAVENPORT      CLOUDY    43  40  89 S5        29.58R
IOWA CITY      CLOUDY    42  40  92 S5        29.58S
MUSCATINE *    CLOUDY    43  41  93 S5        29.58F
QUAD CITIES    CLOUDY    45  41  86 SE3       29.57S
$$

IAZ062-063-075>077-085>089-095>099-202100-
   SOUTHEAST IOWA

CITY           SKY/WX    TMP DP  RH WIND       PRES   REMARKS
BURLINGTON     CLOUDY    43  43 100 CALM      29.57S FOG
FAIRFIELD *    CLOUDY    43  43 100 E6        29.56S FOG
FORT MADISON * FOG       45  45 100 E3        29.58S VSB 1
KEOKUK *       CLOUDY    45 N/A N/A SE5       29.56S HAZE
OSKALOOSA *    CLOUDY    40  40  98 SE6       29.56F FOG
OTTUMWA        CLOUDY    43  41  93 SE6       29.55F FOG
WASHINGTON *   CLOUDY    43  43 100 SE8       29.58S
$$

ABBREVIATIONS USED IN REMARKS
   TC - TEMPERATURES IN CELSIUS
  WCI - WIND CHILL INDEX
   HX - HEAT INDEX
  VSB - VISIBILITY
$$





USA.gov is the U.S. government's official web portal to all federal, state and local government web resources and services.